Satellite: IDEFIX/ARIANE 
Catalog number: 27422
Epoch time:      103007.56045970
Element set:     203 
Inclination:       98.7005 deg
RA of node:        86.9432 deg
Eccentricity:    0.0011703
Arg of perigee:   272.4567 deg
Mean anomaly:      87.5274 deg
Mean motion:   14.27943669 rev/day
Decay rate:    2.1299E-006 rev/day^2
Epoch rev:            3546
Checksum:              319

Satellite: NOAA 17
Catalog number: 27453
Epoch time:      103007.87780073
Element set:     260 
Inclination:       98.7633 deg
RA of node:        79.2950 deg
Eccentricity:    0.0012463
Arg of perigee:   115.4350 deg
Mean anomaly:     244.8116 deg
Mean motion:   14.23265284 rev/day
Decay rate:    2.4399E-006 rev/day^2
Epoch rev:            2803
Checksum:              307

Satellite: HOT BIRD 6
Catalog number: 27499
Epoch time:      102364.09542247
Element set:     64 
Inclination:        0.0040 deg
RA of node:         8.7196 deg
Eccentricity:    0.0011180
Arg of perigee:   225.2390 deg
Mean anomaly:     271.8102 deg
Mean motion:    1.00272778 rev/day
Decay rate:    9.5000E-007 rev/day^2
Epoch rev:             132
Checksum:              254

Satellite: RUBIN 2
Catalog number: 27605
Epoch time:      103008.45982606
Element set:     24 
Inclination:       64.5561 deg
RA of node:       322.0701 deg
Eccentricity:    0.0031469
Arg of perigee:   128.9008 deg
Mean anomaly:   ŽMean motion:   14.71357638 rev/day
Decay rate:    4.4799E-006 rev/day^2
Epoch rev:             276
Checksum:              305

Frase del giorno:
Un uomo su mille e' capace di guidare altri uomini. I restanti 999... seguono
??
le donne...

73 Ciao Renzo.

li, mercoled¨ 08 gennaio 2003 17:55 (+1.00) CET

  /___/____/
 /   /    /
     ||
     || I6KZR  Fermo, Italy
     || BBS    I6KZR@IK6WID.IMAR.ITA.EU
     || e_mail i6kzr@i6kzr.it
     || web http://www.i6kzr.it
     || TCPip: 44.134.243.003

Messaggio inviato con Sally V3.2.115 software packet per Windows 32bit.

<TO="I6KZR@IK6WID.#AP.IMAR.ITA.EU" TITLE="Old Istantrak Keplerians #008"
CONTENT="">


Read previous mail | Read next mail


 15.03.2026 14:35:12lGo back Go up